BTEX

 

 

Black Thunder Express - T

Station: 50 Miles - T Race

Distance: 50 Miles

Release: 22-Jul-2021 07:00

Weather Release:    Arrival: SUNNY

Wind at Release: calm     Wind at Arrival: calm

Temp at Release: 47°    Temp at Arrival: °

Lofts: 14

Birds: 45

Clocked: 29

Good Luck to Everyone!
Drops Pos Breeder Pigeon Name Color Sex Ent Arrival Speed To Win Elg Pd
1 Rueter Family Loft - OR 0904-AU21-CORP BB H 1 07:26:42.65 3294.543 00:00:00 Yes
2 Tom Arveson - WA 6344-AU21-LKC BB H 1 07:26:43.96 3291.832 00:00:01 Yes
3 Rueter Family Loft - OR 0875-AU21-CORP BB H 2 07:26:44.10 3291.565 00:00:01 Yes
4 Digest - MT 0019-AU21-DIGT BBWF H 1 07:26:45.32 3289.043 00:00:03 Yes
5 S & S - CA 0121-AU21-SAS BB H 1 07:26:45.93 3287.794 00:00:03 Yes
6 Digest - MT 0012-AU21-DIGT BB H 2 07:26:46.40 3286.832 00:00:04 Yes
7 Nice - IL 0242-AU21-NICE BB H 1 07:26:47.67 3284.236 00:00:05 Yes
8 S & J Platt - OR 1160-AU21-FHI BB H 1 07:26:47.80 3283.970 00:00:05 Yes
9 Fassio Loft - UT 1097-AU21-SLI BB H 1 07:26:48.17 3283.235 00:00:06 Yes
10 Digest - MT 0011-AU21-DIGT BB H 3 07:26:49.98 3279.523 00:00:07 Yes
11 Paul Meyer - WA 1403-AU21-TCW BC H 1 07:26:50.58 3278.322 00:00:08 Yes
12 Life Loft - WA 4427-AU21-CBF BCH H 1 07:26:50.97 3277.528 00:00:08 Yes
13 Taylor Loft - NM 21064-AU21-NMPC Desert Swan BB H 1 07:26:51.38 3276.695 00:00:09 Yes
14 Fassio Loft - UT 1061-AU21-SLI BB H 2 07:26:54.22 3270.930 00:00:12 Yes
15 Arc - MI 4019-AU21-ARC BC H 1 07:26:55.51 3268.318 00:00:13 Yes
16 Dean Farmer - IL 2301-AU21-VITA BB C 1 07:26:55.62 3268.075 00:00:13 Yes
17 S & S - CA 0119-AU21-SAS BB H 2 07:26:57.20 3264.882 00:00:15 Yes
18 George Scott - UT 0405-AU21-REBW BB H 1 07:26:57.31 3264.660 00:00:15 Yes
19 S & S - CA 0122-AU21-SAS BB H 3 07:26:58.51 3262.240 00:00:16 Yes
20 Life Loft - WA 4406-AU21-CBF BB H 2 07:26:58.91 3261.454 00:00:16 Yes
21 Dean Farmer - IL 2309-AU21-VITA BB H 2 07:26:59.81 3259.642 00:00:17 Yes
22 Taylor Loft - NM 21017-AU21-NMPC 758 BB H 2 07:27:01.12 3257.008 00:00:18 Yes
23 Life Loft - WA 4421-AU21-CBF BCH H 3 07:27:02.61 3253.997 00:00:20 Yes
24 George Scott - UT 0402-AU21-REBW BB H 2 07:27:05.81 3247.592 00:00:23 Yes
25 Fassio Loft - UT 1066-AU21-SLI BB H 3 07:28:20.36 3105.207 00:01:38 Yes
26 S & S - CA 0117-AU21-SAS BB H 4 07:41:30.87 2119.733 00:14:48 Yes
27 Arc - MI 5305-AU21-ARC BC H 2 07:41:40.40 2111.654 00:14:58 Yes
28 Fassio Loft - UT 1067-AU21-SLI BB H 4 07:51:59.25 1692.709 00:25:17 Yes
29 Fassio Loft - UT 1116-AU21-SLI DKC H 5 07:58:03.80 1515.582 00:31:21 Yes

There are 29 bird records

Note: These Race Results are unofficial and subject to change until verified by the Race Committee and declared final.